Weather reports worldwide

Advertisment
Capo Palinuro, Italy (16310): temperature & dewpoint: 15.01.2018 04:00:00 - 21.01.2018 04:00:00 (CET)Capo Palinuro, Italy (16310): wind speed: 15.01.2018 04:00:00 - 21.01.2018 04:00:00 (CET)Capo Palinuro, Italy (16310): wind direction: 15.01.2018 04:00:00 - 21.01.2018 04:00:00 (CET)Capo Palinuro, Italy (16310): reduced air pressure: 15.01.2018 04:00:00 - 21.01.2018 04:00:00 (CET)Capo Palinuro, Italy (16310): visibility: 15.01.2018 04:00:00 - 21.01.2018 04:00:00 (CET)Capo Palinuro, Italy (16310): sunshine duration: 15.01.2018 04:00:00 - 21.01.2018 04:00:00 (CET)
Date & Time tt [°C] td [°C] ff [km/h] ff [kn] dd ppp [hPa] vv [km] sd [min]
21.01.2018 04:00:00 - - - - - - - -
21.01.2018 03:00:00 12,0 9,5 22 12 SSE 1012,1 15 -
21.01.2018 02:00:00 11,8 9,9 21 11 S 1013,1 15 -
21.01.2018 01:00:00 11,8 9,9 22 12 SSW 1013,1 10 -
21.01.2018 00:00:00 12,0 8,7 22 12 SW 1013,1 15 -
20.01.2018 23:00:00 12,0 9,2 18 10 SSW 1013,1 15 -
20.01.2018 22:00:00 12,0 9,9 9 5 ESE 1013,1 15 -
20.01.2018 21:00:00 12,0 9,9 11 6 SSE 1013,1 15 -
20.01.2018 20:00:00 12,2 9,9 11 6 ESE 1013,0 15 -
20.01.2018 19:00:00 12,4 10,1 11 6 ENE 1013,0 15 -
20.01.2018 18:00:00 12,6 10,7 13 7 SSW 1012,8 15 -
20.01.2018 17:00:00 12,6 10,3 13 7 SSW 1012,7 15 0
20.01.2018 16:00:00 13,0 10,4 11 6 ENE 1012,6 15 48
20.01.2018 15:00:00 13,0 10,0 11 6 SSE 1012,6 15 42
20.01.2018 14:00:00 12,8 9,1 21 11 SE 1013,0 15 48
20.01.2018 13:00:00 12,8 9,4 15 8 SSE 1013,2 15 48
20.01.2018 12:00:00 12,6 8,5 16 9 ENE 1013,3 15 60
20.01.2018 11:00:00 12,4 8,5 15 8 NNE 1013,3 15 0
20.01.2018 10:00:00 12,6 9,2 18 10 N 1013,1 15 0
20.01.2018 09:00:00 12,0 9,5 22 12 NNE 1013,1 15 -
20.01.2018 08:00:00 12,2 9,8 15 8 NNE 1013,2 15 0
20.01.2018 07:00:00 12,0 9,9 8 4 NNE 1013,1 15 -
20.01.2018 06:00:00 11,8 9,4 8 4 N 1013,1 15 -
20.01.2018 05:00:00 12,0 9,5 0 0 N 1013,2 15 -
20.01.2018 04:00:00 11,8 9,2 0 0 N 1013,2 10 -
20.01.2018 03:00:00 12,0 10,1 0 0 N 1013,8 10 -
20.01.2018 02:00:00 11,8 9,4 0 0 N 1014,6 10 -
20.01.2018 01:00:00 12,0 9,4 0 0 N 1014,5 10 -
20.01.2018 00:00:00 12,0 9,5 0 0 N 1015,0 10 -
19.01.2018 23:00:00 12,0 9,5 0 0 N 1014,7 10 -
19.01.2018 22:00:00 12,0 9,5 0 0 N 1014,7 10 -
19.01.2018 21:00:00 12,0 9,5 0 0 N 1015,2 10 -
19.01.2018 20:00:00 12,0 9,5 0 0 N 1014,9 10 -
19.01.2018 19:00:00 12,0 9,9 0 0 N 1015,1 10 -
19.01.2018 18:00:00 12,2 10,1 0 0 N 1015,2 10 -
19.01.2018 17:00:00 12,8 10,7 11 6 ESE 1015,4 10 0
19.01.2018 16:00:00 13,0 10,9 11 6 ESE 1015,6 10 0
19.01.2018 15:00:00 12,6 10,1 18 10 SSE 1016,0 10 0
19.01.2018 14:00:00 13,0 10,7 18 10 SSE 1016,0 10 0
19.01.2018 13:00:00 12,8 11,2 18 10 SSE 1017,0 10 0
19.01.2018 12:00:00 13,0 10,5 15 8 SSE 1018,0 10 0
19.01.2018 11:00:00 13,0 10,0 11 6 NE 1018,0 15 -
19.01.2018 10:00:00 12,2 9,8 9 5 W 1018,1 15 0
19.01.2018 09:00:00 12,0 9,5 13 7 WSW 1018,2 15 0
19.01.2018 08:00:00 11,4 7,7 11 6 W 1018,3 15 0
19.01.2018 07:00:00 11,2 8,8 13 7 NNE 1018,3 15 0
19.01.2018 06:00:00 11,2 9,3 9 5 N 1018,5 15 -
19.01.2018 05:00:00 11,4 9,0 9 5 NNE 1019,3 15 -
19.01.2018 04:00:00 11,2 7,9 13 7 NW 1019,2 15 -
19.01.2018 03:00:00 11,2 7,3 9 5 NNE 1019,3 15 -
19.01.2018 02:00:00 11,4 7,3 9 5 NNE 1019,7 15 -
19.01.2018 01:00:00 10,8 8,0 11 6 NE 1020,1 15 -
19.01.2018 00:00:00 11,0 8,0 9 5 NNE 1020,3 15 -
18.01.2018 23:00:00 11,0 7,7 13 7 NW 1020,3 18 -
18.01.2018 22:00:00 11,2 7,3 5 3 NE 1020,4 20 -
18.01.2018 21:00:00 11,2 5,9 8 4 NW 1020,6 20 -
18.01.2018 20:00:00 11,0 5,1 8 4 NNE 1020,6 20 -
18.01.2018 19:00:00 11,0 4,2 8 4 WNW 1020,6 20 -
18.01.2018 18:00:00 11,0 3,8 5 3 NNE 1020,6 25 -
18.01.2018 17:00:00 11,2 3,2 9 5 NNE 1020,6 25 30
18.01.2018 16:00:00 12,0 1,3 8 4 NNE 1020,7 30 60
18.01.2018 15:00:00 12,2 0,3 5 3 NE 1020,8 30 60
18.01.2018 14:00:00 12,2 -0,3 5 3 NW 1020,9 30 60
18.01.2018 13:00:00 12,0 -3,0 8 4 N 1021,0 30 60
18.01.2018 12:00:00 12,2 -4,9 5 3 NNE 1020,9 30 60
18.01.2018 11:00:00 11,0 -6,8 8 4 N 1020,7 20 60
18.01.2018 10:00:00 10,2 -7,0 0 0 N 1019,4 20 60
18.01.2018 09:00:00 9,6 -5,5 0 0 N 1019,5 20 60
18.01.2018 08:00:00 9,0 -4,5 4 2 N 1018,5 20 60
18.01.2018 07:00:00 9,8 -2,8 0 0 N 1017,4 20 0
18.01.2018 06:00:00 10,0 0,1 9 5 SW 1017,4 15 -
18.01.2018 05:00:00 10,0 0,1 9 5 SSW 1016,4 15 -
18.01.2018 04:00:00 10,0 1,4 9 5 SSW 1016,2 15 -
18.01.2018 03:00:00 10,4 4,5 11 6 SSW 1014,9 15 -
18.01.2018 02:00:00 11,0 6,2 11 6 SSW 1013,3 15 -
18.01.2018 01:00:00 11,0 6,4 13 7 SSW 1012,2 15 -
18.01.2018 00:00:00 11,0 6,2 15 8 SSW 1010,0 15 -
17.01.2018 23:00:00 11,2 5,9 18 10 SW 1009,0 15 -
17.01.2018 22:00:00 12,2 6,9 22 12 SSW 1007,0 15 -
17.01.2018 21:00:00 12,6 8,9 29 16 SSW 1006,8 15 -
17.01.2018 20:00:00 12,8 8,1 29 16 SSW 1005,9 15 -
17.01.2018 19:00:00 12,8 8,7 34 18 SW 1005,6 15 -
17.01.2018 18:00:00 12,8 8,5 29 16 SSW 1004,9 15 0
17.01.2018 17:00:00 12,8 8,5 29 16 SSW 1004,9 15 0
17.01.2018 16:00:00 12,8 8,7 22 12 SSW 1006,8 15 0
17.01.2018 15:00:00 13,2 8,1 28 15 SSW 1006,6 15 12
17.01.2018 14:00:00 13,0 9,8 26 14 SSW 1008,0 15 0
17.01.2018 13:00:00 13,0 10,5 22 12 SSW 1009,0 15 0
17.01.2018 12:00:00 12,8 10,4 28 15 SW 1009,9 15 0
17.01.2018 11:00:00 12,0 9,0 28 15 SW 1011,0 15 0
17.01.2018 10:00:00 12,0 9,4 28 15 SW 1011,0 15 0
17.01.2018 09:00:00 12,0 9,4 34 18 SW 1011,2 15 0
17.01.2018 08:00:00 12,0 9,5 22 12 SSE 1011,3 15 0
17.01.2018 07:00:00 12,0 9,6 39 21 S 1012,1 20 -
17.01.2018 06:00:00 12,0 9,5 34 18 SSE 1012,5 20 -
17.01.2018 05:00:00 12,0 9,5 29 16 SSW 1013,3 20 -
17.01.2018 04:00:00 12,0 9,5 28 15 SSE 1014,6 20 -
17.01.2018 03:00:00 12,2 9,8 24 13 W 1015,4 20 -
17.01.2018 02:00:00 12,2 9,8 34 18 SSE 1015,6 20 -
17.01.2018 01:00:00 12,2 10,4 28 15 S 1015,9 20 -
17.01.2018 00:00:00 12,2 10,1 24 13 SSW 1016,1 20 -
16.01.2018 23:00:00 12,0 9,7 34 18 SSW 1016,1 20 -
16.01.2018 22:00:00 12,2 10,1 34 18 WNW 1016,6 20 -
16.01.2018 21:00:00 12,2 10,1 37 20 W 1016,7 20 -
16.01.2018 20:00:00 12,2 10,1 34 18 WNW 1016,8 20 -
16.01.2018 19:00:00 12,0 9,9 24 13 WNW 1017,0 20 -
16.01.2018 18:00:00 12,0 9,4 29 16 W 1017,8 20 -
16.01.2018 17:00:00 12,0 9,2 28 15 NW 1018,2 20 -
16.01.2018 16:00:00 12,0 9,4 34 18 WNW 1018,7 20 0
16.01.2018 15:00:00 12,0 9,0 29 16 WNW 1018,9 20 0
16.01.2018 14:00:00 12,2 8,9 28 15 WSW 1019,5 20 0
16.01.2018 13:00:00 12,0 8,3 34 18 W 1020,3 20 0
16.01.2018 12:00:00 11,6 9,4 13 7 W 1020,9 20 24
16.01.2018 11:00:00 11,8 8,7 15 8 WSW 1020,8 20 30
16.01.2018 10:00:00 11,2 9,1 13 7 W 1020,6 20 0
16.01.2018 09:00:00 11,4 8,4 15 8 WNW 1020,5 20 48
16.01.2018 08:00:00 11,2 8,4 15 8 WNW 1020,5 20 6
16.01.2018 07:00:00 11,0 8,2 16 9 WNW 1020,7 15 -
16.01.2018 06:00:00 11,2 8,2 16 9 W 1021,4 15 -
16.01.2018 05:00:00 11,2 8,1 13 7 WNW 1021,9 20 -
16.01.2018 04:00:00 11,2 8,4 9 5 NW 1022,4 20 -
16.01.2018 03:00:00 11,2 9,0 8 4 WNW 1022,9 20 -
16.01.2018 02:00:00 11,2 9,0 8 4 NNW 1022,9 20 -
16.01.2018 01:00:00 11,2 9,0 5 3 NW 1022,9 20 -
16.01.2018 00:00:00 11,0 8,7 5 3 NW 1022,9 20 -
15.01.2018 23:00:00 11,0 8,7 8 4 WNW 1022,9 20 -
15.01.2018 22:00:00 10,8 8,2 8 4 WSW 1022,9 20 -
15.01.2018 21:00:00 10,6 8,2 9 5 SSW 1022,8 20 -
15.01.2018 20:00:00 11,0 8,4 11 6 ESE 1022,8 15 -
15.01.2018 19:00:00 11,2 9,0 9 5 E 1022,8 15 -
15.01.2018 18:00:00 11,0 8,4 8 4 ESE 1022,9 15 -
15.01.2018 17:00:00 11,0 8,6 11 6 ENE 1023,0 15 0
15.01.2018 16:00:00 11,0 8,9 11 6 N 1023,0 15 0
15.01.2018 15:00:00 11,2 7,9 11 6 ESE 1023,2 15 18
15.01.2018 14:00:00 11,2 7,9 5 3 WNW 1023,4 15 12
15.01.2018 13:00:00 10,8 8,2 8 4 N 1023,9 15 0
15.01.2018 12:00:00 10,0 7,2 8 4 NNE 1023,9 15 0
15.01.2018 11:00:00 10,0 7,4 9 5 NW 1023,5 15 0
15.01.2018 10:00:00 9,6 6,5 0 0 N 1022,5 5 0
15.01.2018 09:00:00 9,8 7,4 11 6 ESE 1022,4 8 -
15.01.2018 08:00:00 10,0 7,2 15 8 ESE 1021,5 10 0
15.01.2018 07:00:00 10,0 7,4 11 6 SSE 1021,5 12 0
15.01.2018 06:00:00 10,0 7,2 9 5 ESE 1021,5 15 -
15.01.2018 05:00:00 10,0 7,4 11 6 SSE 1021,5 15 -
15.01.2018 04:00:00 10,0 7,2 18 10 E 1021,5 15 -

tt = temperature
td = dewpoint
ff = wind speed
dd = wind direction
ppp = reduced air pressure
vv = visibility
sd = sunshine duration

Next stations